Regional Weather Roundup
Issued by NWS

Home | Current Version | Previous Version | Graphics & Text | Print | Product List | Glossary On
Versions: 1 2 3 4 5 6 7 8 9 10 11 12 13 14 15 16 17 18 19 20 21 22 23 24 25 26 27 28 29 30 31 32 33 34 35 36 37 38 39 40 41 42 43 44 45 46 47 48 49 50
000
ASUS43 KMKX 172100
RWRWI

WISCONSIN REGIONAL WEATHER ROUNDUP
NATIONAL WEATHER SERVICE MILWAUKEE/SULLIVAN WI
300 PM CST FRI NOV 17 2017

NOTE: "FAIR" INDICATES FEW OR NO CLOUDS BELOW 12,000 FEET WITH NO
SIGNIFICANT WEATHER AND/OR OBSTRUCTIONS TO VISIBILITY.

WIZ001-002-006>008-014>016-023>028-172200-
NORTHWEST WISCONSIN

CITY           SKY/WX    TMP DP  RH WIND       PRES   REMARKS
SUPERIOR ARPT  LGT RAIN  34  33  99 NW5       29.66R WCI  30
ASHLAND        CLOUDY    34  32  92 S3        29.65S FOG
HAYWARD        LGT RAIN  34  34 100 S3        29.65S FOG
SIREN          CLOUDY    35  34  96 S5        29.65S FOG     WCI  31
CUMBERLAND     CLOUDY    32  32 100 SE5       29.64S FOG     WCI  27
RICE LAKE      LGT RAIN  35  35  99 E3        29.66F
CHETEK         DRZL/FOG  34  34 100 CALM      29.65F VSB 1
LADYSMITH      CLOUDY    35  34  97 SE3       29.66F FOG
EAU CLAIRE     NOT AVBL
MENOMONIE      DRIZZLE   37  37 100 E3        29.65S
NEW RICHMOND   CLOUDY    36  36  99 E5        29.64S FOG     WCI  32
OSCEOLA        CLOUDY    37  37 100 E5        29.67R FOG     WCI  33
$$

WIZ003>005-009-010-017-018-172200-
NORTH CENTRAL WISCONSIN

CITY           SKY/WX    TMP DP  RH WIND       PRES   REMARKS
MANITOWISH WTR DRIZZLE   32  32 100 S3        29.66S
ARBOR VITAE    MIX PCPN  34  33  96 S7        29.65F WCI  28
WOODRUFF       MIX PCPN  34  33  96 S7        29.65F WCI  28
RHINELANDER    MIX PCPN  33  33 100 S7        29.66F FOG     WCI  27
EAGLE RIVER    MIX PCPN  32  32 100 SW3       29.65F
LAND O LAKES   CLOUDY    33  33  98 S6        29.67F FOG     WCI  28
PHILLIPS       CLOUDY    32  32 100 S5        29.65S FOG     WCI  28
TOMAHAWK       DRIZZLE   32  31  96 CALM      29.67F
MEDFORD        DRIZZLE   32  32 100 S6        29.65F WCI  26
MERRILL        DRIZZLE   34  33  96 CALM      29.68F
$$

WIZ029-030-035-036-043>047-172200-
CENTRAL WISCONSIN

CITY           SKY/WX    TMP DP  RH WIND       PRES   REMARKS
WAUSAU         CLOUDY    34  32  92 S7        29.66S FOG     WCI  28
MOSINEE        CLOUDY    34  32  93 S8        29.67F FOG     WCI  27
MARSHFIELD     LGT RAIN  34  31  88 S7        29.65S FOG     WCI  28
STEVENS POINT  CLOUDY    34  32  92 S9        29.68F WCI  26
WAUPACA        CLOUDY    39  32  75 S10       29.70F WCI  33
WAUTOMA        CLOUDY    37  32  82 S12       29.69F WCI  29
WISC RAPIDS    CLOUDY    37  32  82 VRB7      29.68S WCI  32
CAMP DOUGLAS   DRIZZLE   36  36 100 SE8       29.65F FOG     WCI  29
$$

WIZ011>013-019>022-031-037>040-048>050-172200-
NORTHEAST WISCONSIN

CITY           SKY/WX    TMP DP  RH WIND       PRES   REMARKS
ANTIGO         MIX PCPN  32  32 100 S9        29.67S WCI  24
SHAWANO        DRIZZLE   39  34  80 S3        29.70F
OCONTO         CLOUDY    40  36  85 S6        29.73F
STURGEON BAY   LGT RAIN  41  37  86 S26G36    29.69F
GREEN BAY      LGT RAIN  40  36  86 S15G22    29.71F WCI  32
MANITOWOC      CLOUDY    41  37  86 S21G30    29.74F
APPLETON       CLOUDY    37  30  75 S16       29.69F WCI  28
CLINTONVILLE   RAIN      37  32  81 S9        29.70F WCI  31
OSHKOSH        LGT RAIN  39  33  79 S15       29.70F WCI  31
$$

WIZ032>034-041-042-053>061-172200-
SOUTHWEST WISCONSIN

CITY           SKY/WX    TMP DP  RH WIND       PRES   REMARKS
LA CROSSE      LGT RAIN  39  37  92 SE7       29.64F FOG     WCI  34
SPARTA         CLOUDY    37  35  92 S6        29.66F WCI  32
VIROQUA        CLOUDY    35  35 100 S10       29.63S VSB 1/2 WCI  28
BOSCOBEL       CLOUDY    39  36  89 S3        29.67F FOG
PRAIRIE DU CHI CLOUDY    38  36  91 SE8       29.65F FOG     WCI  32
PLATTEVILLE    CLOUDY    38  38 100 SE12      29.67F WCI  30
$$

WIZ056-057-062-063-064-067-068-172200-
SOUTH CENTRAL WISCONSIN

CITY           SKY/WX    TMP DP  RH WIND       PRES   REMARKS
REEDSBURG      CLOUDY    36  36 100 S7        29.67F FOG     WCI  30
BARABOO/DELLS  CLOUDY    36  34  92 S15G22    29.67F FOG     WCI  26
LONE ROCK      NOT AVBL
MINERAL POINT  LGT RAIN  36  36 100 SE14      29.66F WCI  27
MADISON        CLOUDY    37  34  89 S15G25    29.69F FOG     WCI  28
MIDDLETON      CLOUDY    38  36  92 S13G18    29.70F WCI  30
WATERTOWN      CLOUDY    38  34  85 S12G18    29.74F WCI  31
MONROE         CLOUDY    36  36 100 SE16      29.69F FOG     WCI  26
JANESVILLE     CLOUDY    39  36  87 S15G21    29.73F FOG     WCI  31
$$

WIZ051-052-058>065-066-070>072-172200-
SOUTHEAST WISCONSIN

CITY           SKY/WX    TMP DP  RH WIND       PRES   REMARKS
MILWAUKEE      CLOUDY    42  36  79 S13       29.78F
WAUKESHA       CLOUDY    37  32  81 SE12      29.77F WCI  30
MILWAUKEE/TIMM CLOUDY    39  30  70 S10G18    29.78F WCI  32
RACINE         CLOUDY    43  35  73 S17G25    29.80F
BURLINGTON     CLOUDY    42  37  83 S9G16     29.77F
KENOSHA        CLOUDY    44  31  60 S13G22    29.78F
FOND DU LAC    CLOUDY    41  31  67 S22       29.70F
SHEBOYGAN      CLOUDY    40  38  93 S21G28    29.75F WCI  30
WEST BEND      LGT RAIN  36  34  93 S8        29.76F WCI  29
JUNEAU         CLOUDY    37  32  81 SE17      29.73F WCI  28
$$

LSZ147-162-172200-
LAKE SUPERIOR

STATION/POSITION TIME  TEMP    WIND        PRES    WAVE
                       AIR SEA DIR/SP/G            HT/PER
                 (UTC) (F)     (DEG/KT/KT) (MB)    (FT/S)
DEVILS ISLAND    2000   35     180/  3/  6 1004.6F
SAXON HARBOR     2040   35     170/  3/  7 1004.1S
$$

LMZ867-665-643>646-172200-
LAKE MICHIGAN

STATION/POSITION TIME  TEMP    WIND        PRES    WAVE
                       AIR SEA DIR/SP/G            HT/PER
                 (UTC) (F)     (DEG/KT/KT) (MB)    (FT/S)
N MID LAKE BUOY  1950   41 49  170/ 25/ 31 1009.5F   8/ 6
NORTHPORT PIER   2040   43     160/ 14/ 23 1006.8F
KEWAUNEE LAKESHO 1830   41     170/ 27/ 32 1010.2F
SHEBOYGAN LAKESH 2000   41     170/ 27/ 30 1008.9F
PORT WASHINGTON  2040   42     170/ 17/ 20 1009.5F
MILWAUKEE LAKESH 2030   41     180/ 14/ 18   N/A
S MID LAKE BUOY  1950   45 50  150/ 23/ 27 1011.7F   5/ 6
KENOSHA   LAKESH 2000   43     160/ 20/ 22 1009.5
$$

TC  - TEMPERATURE IN CELSIUS
VSB - VISIBILITY IN STATUTE MILES
WCI - WIND CHILL INDEX
HX  - HEAT INDEX





USA.gov is the U.S. government's official web portal to all federal, state and local government web resources and services.